Weather History for Shelton, WA

Change the Weather History Date:

Sunday, June 23, 2013

  Actual Average Record
Temperature  
Mean Temperature 62 °F -  
Max Temperature 68 °F 72 °F 95 °F (1992)
Min Temperature 57 °F 50 °F 39 °F (2006)
Degree Days  
Heating Degree Days 2    
Growing Degree Days 12 (Base 50)    
Moisture  
Dew Point 58 °F    
Average Humidity 89    
Maximum Humidity 100    
Minimum Humidity 75    
Precipitation  
Precipitation 0.90 in - - ()
Sea Level Pressure  
Sea Level Pressure 29.69 in    
Wind  
Wind Speed 2 mph (WSW)    
Max Wind Speed 10 mph    
Max Gust Speed 16 mph    
Visibility 8 miles    
Events Rain    
Averages and records for this station are not official NWS values.
T = Trace of Precipitation, MM = Missing Value Source: NWS Daily Summary

Daily Weather History Graph

Daily Weather History Graph

Search for Another Location

Airport:

Trip Planner

Search our weather history database for the weather conditions in past years. The results will help you decide how hot, cold, wet, or windy it might be!

Date:

Astronomy

Jun. 23, 2013 Rise Set
Actual Time 5:17 AM PDT 9:12 PM PDT
Civil Twilight 4:36 AM PDT 9:52 PM PDT
Nautical Twilight 3:41 AM PDT 10:48 PM PDT
Astronomical Twilight 2:16 AM PDT 12:13 AM PDT
Moon 9:23 PM PDT (6/23) 5:46 AM PDT (6/23)
Length of Visible Light 17h 16m
Length of Day
15h 55m
Full, 100% of the Moon is Illuminated
Jun 23
Full
Jun 29
Last Quarter
Jul 8
New
Jul 15
First Quarter
Jul 22
Full

Hourly Weather History & Observations

Time (PDT) Temp. Dew Point Humidity Pressure Visibility Wind Dir Wind Speed Gust Speed Precip Events Conditions
12:53 AM 57.9 °F 54.0 °F 87% 29.84 in 10.0 mi Calm Calm - N/A   Clear
1:53 AM 59.0 °F 55.0 °F 87% 29.82 in 10.0 mi Calm Calm - 0.00 in   Mostly Cloudy
2:53 AM 57.9 °F 55.0 °F 90% 29.81 in 10.0 mi Calm Calm - 0.00 in   Overcast
3:53 AM 57.9 °F 55.9 °F 93% 29.81 in 10.0 mi Calm Calm - 0.00 in Rain Light Rain
4:53 AM 57.9 °F 55.9 °F 93% 29.80 in 10.0 mi Calm Calm - 0.00 in   Overcast
5:53 AM 57.9 °F 55.9 °F 93% 29.80 in 7.0 mi Calm Calm - 0.00 in Rain Light Rain
6:53 AM 59.0 °F 55.9 °F 90% 29.79 in 10.0 mi Calm Calm - 0.01 in Rain Light Rain
7:53 AM 60.1 °F 57.0 °F 90% 29.78 in 10.0 mi Calm Calm - 0.01 in Rain Light Rain
8:53 AM 60.1 °F 57.9 °F 93% 29.78 in 8.0 mi Calm Calm - 0.02 in Rain Light Rain
9:53 AM 61.0 °F 59.0 °F 93% 29.77 in 10.0 mi North 4.6 mph - 0.02 in Rain Light Rain
10:53 AM 64.0 °F 57.9 °F 80% 29.75 in 10.0 mi North 5.8 mph - 0.00 in   Overcast
11:53 AM 64.0 °F 57.0 °F 78% 29.74 in 10.0 mi Calm Calm - 0.00 in Rain Light Rain
12:14 PM 64.4 °F 57.2 °F 77% 29.74 in 10.0 mi Calm Calm - 0.00 in Rain Light Rain
12:32 PM 64.4 °F 57.2 °F 77% 29.73 in 10.0 mi Calm Calm - 0.00 in Rain Light Rain
12:53 PM 66.0 °F 57.9 °F 75% 29.73 in 10.0 mi Calm Calm - 0.00 in   Overcast
1:53 PM 66.9 °F 59.0 °F 76% 29.72 in 10.0 mi Calm Calm - 0.00 in   Overcast
2:53 PM 68.0 °F 61.0 °F 78% 29.70 in 10.0 mi Calm Calm - 0.00 in Rain Light Rain
3:53 PM 66.9 °F 59.0 °F 76% 29.68 in 10.0 mi ENE 5.8 mph - 0.00 in Rain Light Rain
4:43 PM 66.2 °F 60.8 °F 83% 29.67 in 10.0 mi ENE 3.5 mph - 0.01 in Rain Light Rain
4:53 PM 64.9 °F 61.0 °F 87% 29.67 in 10.0 mi Calm Calm - 0.01 in Rain Light Rain
5:00 PM 64.4 °F 60.8 °F 88% 29.66 in 9.0 mi Calm Calm - 0.00 in Rain Light Rain
5:08 PM 64.4 °F 60.8 °F 88% 29.66 in 7.0 mi Calm Calm - 0.01 in Rain Light Rain
5:46 PM 64.4 °F 62.6 °F 94% 29.65 in 9.0 mi Calm Calm - 0.03 in Rain Light Rain
5:53 PM 64.9 °F 61.0 °F 87% 29.65 in 10.0 mi North 3.5 mph - 0.03 in Rain Light Rain
6:53 PM 64.0 °F 61.0 °F 90% 29.63 in 8.0 mi Calm Calm - 0.01 in Rain Light Rain
7:09 PM 64.4 °F 60.8 °F 88% 29.63 in 6.0 mi Calm Calm - 0.02 in Rain Light Rain
7:18 PM 60.8 °F 59.0 °F 94% 29.63 in 1.8 mi WSW 5.8 mph 16.1 mph 0.04 in Rain Heavy Rain
7:25 PM 60.8 °F 59.0 °F 94% 29.64 in 1.0 mi Variable 3.5 mph - 0.10 in Rain Heavy Rain
7:34 PM 60.8 °F 57.2 °F 88% 29.63 in 1.0 mi WSW 5.8 mph - 0.17 in Rain Heavy Rain
7:44 PM 59.0 °F 57.2 °F 94% 29.63 in 1.0 mi West 10.4 mph - 0.24 in Rain Heavy Rain
7:53 PM 59.0 °F 57.9 °F 96% 29.64 in 1.2 mi SW 9.2 mph - 0.29 in Rain Rain
8:06 PM 59.0 °F 57.2 °F 94% 29.63 in 0.8 mi West 10.4 mph - 0.17 in Rain Heavy Rain
8:17 PM 59.0 °F 57.2 °F 94% 29.63 in 1.0 mi West 9.2 mph - 0.33 in Rain Rain
8:26 PM 59.0 °F 57.2 °F 94% 29.62 in 3.0 mi West 8.1 mph - 0.36 in Rain Light Rain
8:47 PM 59.0 °F 57.2 °F 94% 29.62 in 1.8 mi West 6.9 mph - 0.40 in Rain Heavy Rain
8:53 PM 59.0 °F 57.9 °F 96% 29.62 in 2.5 mi West 6.9 mph - 0.41 in Rain Light Rain
9:00 PM 59.0 °F 57.2 °F 94% 29.62 in 10.0 mi WSW 5.8 mph - 0.00 in   Overcast
9:53 PM 59.0 °F 57.9 °F 96% 29.62 in 7.0 mi WSW 6.9 mph - 0.08 in Rain Light Rain
10:11 PM 59.0 °F 59.0 °F 100% 29.62 in 10.0 mi SW 5.8 mph - 0.01 in Rain Light Rain
10:28 PM 59.0 °F 57.2 °F 94% 29.62 in 10.0 mi SW 4.6 mph - 0.01 in   Overcast
10:53 PM 59.0 °F 57.9 °F 96% 29.62 in 10.0 mi WSW 8.1 mph - 0.01 in   Overcast
11:45 PM 59.0 °F 57.2 °F 94% 29.61 in 10.0 mi SSW 3.5 mph - N/A   Overcast
11:53 PM 59.0 °F 57.9 °F 96% 29.62 in 10.0 mi SSW 3.5 mph - N/A   Overcast